CAPE
878 867 882 580 612 1094 1193 1063 703 59 206 589 480 1223 1265 1290 1039 1022 1275 973 202 236 154 597 579 664 567 446 396 417 523 740 823 772 859 875 832 816
884 1036 808 678 784 1053 1195 1280 1232 648 132 638 841 1122 1346 1352 1262 1054 1477 365 492 447 300 80 140 218 234 245 277 305 273 299 529 703 704 743 736 745
735 854 767 1013 487 1122 1188 1128 1046 1083 801 398 958 1251 1186 1303 1319 1441 1208 1390 1324 813 520 444 368 299 245 294 319 288 304 315 248 295 483 662 728 664
275 542 573 777 624 924 933 1085 1029 661 692 952 799 1063 1301 1380 1228 1289 1234 916 1056 667 209 169 62 22 17 25 25 16 22 83 118 85 85 189 419 655
64 171 625 574 545 802 768 1015 540 524 1017 957 958 1227 1073 1177 1334 1560 1522 1464 1505 747 344 169 82 45 0 0 0 0 0 0 0 0 0 20 59 163
207 192 334 649 602 552 608 1156 821 665 1048 788 970 1009 1234 1266 1456 1297 1159 1660 1247 1030 788 188 23 0 0 0 0 0 0 0 0 0 0 0 0 10
910 885 934 1041 1006 744 846 1030 1124 1049 1087 706 1036 1193 1195 1362 1287 1230 1462 1340 1033 1346 960 644 101 0 0 0 0 0 0 0 0 0 0 0 0 0
1187 1258 1158 881 701 365 486 539 996 838 1016 788 929 1132 1211 1416 1429 1413 1433 999 542 841 633 363 44 0 0 0 0 0 0 0 0 0 0 0 0 0
1192 1360 1284 1082 1014 1185 696 421 420 471 673 1353 1267 1045 1235 1692 1437 1656 1512 1260 863 1103 252 246 53 0 0 0 0 0 0 0 0 0 0 0 0 0
1566 1554 1430 1160 1228 1232 1253 1228 1147 1277 1029 1062 1311 1402 1677 1792 1775 1535 1568 1422 1065 519 8 82 4 0 0 0 0 0 0 0 0 0 0 0 0 0
1536 1461 1431 1395 1319 891 957 1073 1000 1142 1192 1102 937 991 1126 890 852 1283 1090 904 645 628 23 2 0 0 0 0 5 0 0 0 0 0 0 0 0 0
1414 1434 1073 1324 1279 831 958 1080 1137 1287 1572 1428 992 559 345 589 278 797 1132 1000 830 449 107 0 1 0 0 2 3 8 3 0 0 0 0 0 0 0
1314 1125 1068 677 685 618 536 1288 1138 1247 1344 1046 1032 1040 1192 1107 929 518 709 833 741 497 45 0 1 6 11 3 5 12 4 2 0 0 0 0 0 0
1496 1355 1348 855 446 390 338 608 794 780 1211 1311 1248 1192 1183 1056 732 453 247 134 169 126 13 0 5 12 16 9 7 10 21 7 0 2 1 1 0 0
841 739 782 214 25 226 247 239 153 240 379 552 1045 1063 1017 1065 755 150 15 0 0 0 0 7 9 16 9 13 11 7 19 12 7 3 4 2 2 2
0 0 0 98 188 294 133 38 16 14 30 179 445 742 433 83 33 1 1 0 0 1 7 14 14 11 7 0 8 5 11 9 15 14 8 1 1 3
0 0 0 0 0 31 85 89 53 87 116 126 142 146 57 25 12 0 0 0 0 0 5 16 9 4 1 0 1 7 2 2 3 5 4 2 3 2
5 27 16 17 21 36 65 97 69 52 88 63 49 33 23 27 1 0 0 0 0 1 3 9 2 0 0 0 0 2 2 3 2 4 3 1 2 5
69 119 134 163 90 65 72 59 39 53 63 73 40 10 18 28 0 0 0 0 0 0 0 6 0 1 4 1 2 0 3 2 0 3 2 2 1 1
22 73 98 132 111 49 28 1 4 10 25 46 32 36 21 0 0 0 0 0 2 0 1 6 5 10 4 1 13 12 0 10 1 0 2 1 2 0
0 2 175 170 97 27 69 67 68 56 50 35 35 24 3 0 0 0 0 0 0 1 0 3 5 11 13 0 3 8 17 0 0 3 3 3 1 1
154 128 134 129 98 39 35 121 123 121 101 89 95 32 1 0 0 0 0 1 1 0 1 3 18 2 3 5 2 9 26 8 0 0 0 0 3 2
76 127 115 132 138 126 38 18 90 217 292 351 285 185 105 53 13 0 1 2 4 10 6 8 17 6 7 1 0 1 7 18 17 4 2 0 0 0
CIN
-17 -20 -18 -15 -18 -16 -24 -28 -15 -13 -2 -6 -11 -34 -38 -52 -62 -45 -45 -69 -134 -132 -156 -108 -100 -87 -88 -92 -93 -92 -86 -72 -59 -58 -30 -16 -19 -20
-4 -7 -17 -8 -11 -10 -7 -8 -17 -19 -19 -6 -11 -25 -32 -24 -28 -47 -27 -98 -78 -104 -134 -191 -177 -154 -151 -142 -132 -116 -112 -101 -76 -56 -56 -42 -35 -20
-10 -5 -10 -12 -11 -3 -7 -4 -5 -6 -4 -4 -22 -22 -31 -24 -16 -22 -26 -22 -18 -85 -109 -118 -125 -147 -163 -147 -144 -139 -135 -128 -128 -113 -83 -55 -38 -41
-83 -20 -14 -8 -11 -7 -4 -9 -7 -16 -6 -5 -2 -9 -24 -17 -27 -29 -19 -15 -24 -68 -156 -167 -207 -250 -268 -269 -264 -262 -243 -182 -158 -159 -153 -132 -89 -48
-54 -44 -19 -13 -11 -4 -9 -3 -20 -15 -6 -10 -10 -3 -17 -20 -16 -25 -27 -21 -25 -86 -146 -183 -221 -245 0 0 0 0 0 0 0 0 0 -147 -180 -140
-67 -76 -43 -13 -12 -12 -10 -8 -16 -17 -13 -32 -17 -5 -5 -7 -18 -11 -11 -1 -24 -23 -57 -192 -85 0 0 0 0 0 0 0 0 0 0 0 0 -84
-20 -33 -25 -10 -15 -20 -11 -7 -6 -6 -4 -14 -1 -1 -6 -14 -7 -2 -7 -4 -23 -17 -40 -62 -152 0 0 0 0 0 0 0 0 0 0 0 0 0
-14 -16 -20 -43 -44 -52 -33 -31 -16 -13 -8 -7 -5 -4 -12 -14 -1 -5 0 -17 -52 -74 -86 -93 -166 0 0 0 0 0 0 0 0 0 0 0 0 0
-18 -14 -12 -25 -43 -14 -41 -55 -54 -52 -33 -2 0 -16 -7 -6 -6 -2 -3 -6 -17 -4 -128 -115 -200 0 0 0 0 0 0 0 0 0 0 0 0 0
-8 -11 -9 -6 -29 -23 -11 -5 -8 -8 -30 -24 -14 -10 -2 -3 -2 0 0 0 -10 -57 -33 -144 -59 0 0 0 0 0 0 0 0 0 0 0 0 0
-2 -6 -8 -11 -8 -47 -11 -1 -3 -1 -6 -25 -34 -29 -29 -28 -27 -1 0 -3 -31 -20 -27 0 0 0 0 0 0 0 0 0 0 0 0 0 0 0
-41 -18 -43 -15 -28 -64 -25 -8 0 -7 0 -3 -22 -81 -116 -63 -116 -30 -1 0 0 -37 -126 0 -1 -1 0 0 0 0 0 0 0 0 0 0 0 0
-35 -40 -35 -98 -71 -78 -74 -2 -9 -6 -3 -11 -8 -5 0 -11 -25 -96 -45 -15 -4 -9 -117 0 -1 -1 0 -1 -1 -1 -1 -1 0 0 0 0 0 0
-28 -34 -15 -62 -78 -85 -130 -83 -56 -38 -2 -1 -5 -4 -9 -15 -37 -89 -128 -176 -118 -135 -113 0 -1 0 0 0 -1 -1 -1 0 0 0 0 0 0 0
-61 -84 -63 -134 -208 -110 -140 -151 -186 -151 -104 -82 -32 -30 -19 -8 -26 -177 -298 0 0 0 0 0 0 -1 -1 0 0 0 0 -1 0 0 0 0 0 0
0 0 0 -121 -107 -97 -180 -317 -317 -294 -264 -148 -65 -19 -72 -189 -205 0 0 0 0 -1 0 0 0 0 0 0 0 -1 0 0 0 0 0 0 0 0
0 0 0 0 0 -266 -233 -225 -293 -240 -212 -209 -181 -164 -192 -226 -203 0 0 0 0 0 -1 0 0 -2 0 0 -1 0 0 0 0 0 0 0 0 0
-23 -181 -279 -261 -246 -218 -188 -200 -267 -267 -222 -266 -285 -284 -263 -189 -1 0 0 0 0 -1 -1 0 0 0 0 0 0 0 0 0 0 0 0 0 0 0
-120 -131 -84 -77 -117 -154 -173 -192 -239 -248 -236 -253 -319 -332 -298 -280 0 0 -1 0 0 -1 0 -1 0 -7 -1 0 -1 0 0 0 0 0 0 0 0 -1
-185 -104 -97 -102 -112 -144 -191 -64 -280 -266 -244 -190 -186 -172 -206 0 0 0 0 0 -1 -1 -1 0 -4 -3 -9 -6 0 -1 0 -2 0 0 0 0 0 0
0 -38 -59 -79 -104 -177 -121 -136 -164 -177 -186 -208 -208 -185 -140 0 0 0 0 0 0 -2 0 -1 -3 -26 -2 -3 -3 -1 -1 0 0 0 0 0 0 0
-86 -102 -102 -90 -91 -148 -152 -89 -78 -84 -105 -128 -95 -101 -31 0 0 0 0 -1 -1 0 -1 -2 -2 -26 -18 -15 -3 0 -1 -18 0 0 0 0 0 0
-135 -115 -104 -96 -98 -115 -143 -169 -104 -66 -51 -38 -40 -46 -35 -48 -82 -1 -2 -2 -1 -1 -1 -1 -1 -17 -9 -21 -4 -3 -1 -1 -1 0 0 0 0 0
Wind_Speed
27 25 22 21 19 17 18 19 17 18 16 13 12 14 15 15 16 19 17 12 21 27 23 11 8 5 3 4 5 5 6 6 7 6 6 6 5 4
27 27 24 23 20 18 17 17 17 16 16 16 13 15 17 17 19 21 24 26 24 25 23 7 5 6 3 4 4 6 7 8 9 11 10 9 9 8
30 32 28 23 23 19 16 16 18 16 17 16 17 18 19 20 20 19 19 22 20 19 19 19 20 18 9 4 3 5 7 9 11 12 13 14 13 11
34 37 38 27 23 20 18 16 16 17 19 19 21 18 19 21 22 21 19 17 23 20 22 23 25 24 23 21 18 12 10 9 10 12 13 13 14 15
14 40 38 37 26 20 16 15 16 18 15 17 20 19 22 22 21 19 19 21 23 22 21 21 23 24 26 29 26 21 20 16 14 13 13 13 14 15
15 24 31 32 16 15 15 16 16 16 14 14 18 21 22 24 25 26 26 23 26 23 20 21 24 28 33 33 31 29 25 21 20 20 18 17 15 15
19 23 24 21 13 11 9 20 18 17 17 15 18 19 21 23 25 24 25 27 27 23 22 22 26 32 32 28 27 29 28 26 23 21 21 22 19 15
11 11 12 13 12 14 12 20 20 17 19 21 22 25 28 24 25 25 25 27 27 18 21 26 27 32 30 27 28 29 28 28 26 24 18 8 9 11
11 11 11 14 16 19 14 13 15 15 20 27 26 29 30 27 26 21 22 24 25 24 23 29 26 29 26 26 25 27 27 27 27 26 26 23 10 8
13 12 14 18 13 13 13 15 16 20 24 26 28 30 29 26 20 21 25 26 25 23 22 30 28 27 24 26 23 23 24 26 26 27 27 26 23 12
19 19 17 18 19 18 23 26 23 25 25 22 26 30 32 30 26 27 28 28 26 25 20 26 28 26 24 25 21 21 25 24 27 25 26 28 26 21
18 20 20 23 23 18 18 21 23 24 24 24 25 26 24 25 25 22 28 24 27 27 21 23 26 26 26 21 20 25 25 21 27 24 25 25 26 21
20 21 25 23 26 24 21 24 22 26 25 27 27 26 24 22 21 19 17 18 23 23 25 24 29 25 23 26 25 25 24 25 25 23 23 23 24 20
24 26 28 24 26 24 25 33 30 24 22 21 24 24 23 24 21 19 19 20 22 26 27 24 27 28 29 29 29 25 25 26 23 24 25 24 22 20
28 25 24 22 23 24 30 29 28 22 17 13 15 19 20 21 20 19 18 20 21 21 21 19 24 28 27 29 31 28 29 27 23 22 24 23 21 19
28 25 24 23 22 25 30 29 29 25 22 22 22 19 18 18 19 18 19 18 21 21 19 18 19 19 24 25 28 30 28 27 24 23 21 20 19 17
32 27 25 28 30 30 30 29 26 26 22 20 19 18 19 19 20 18 17 16 18 17 16 17 17 17 19 22 27 28 26 25 21 21 20 20 19 15
46 35 35 34 34 30 29 28 25 25 24 23 22 20 20 19 17 14 10 8 13 17 16 17 17 18 20 21 16 24 22 21 20 18 17 19 19 16
29 35 34 31 28 27 26 27 25 23 23 22 21 19 16 14 13 13 13 12 11 13 16 12 10 13 16 23 23 13 19 19 18 17 16 15 19 20
30 11 25 26 24 24 24 25 24 23 22 23 24 21 19 19 18 18 16 17 17 14 13 11 11 12 17 24 25 23 9 17 17 18 18 17 18 19
18 27 27 25 24 23 25 24 25 25 24 24 24 24 23 23 22 18 18 18 18 18 16 13 11 12 16 18 22 24 18 8 14 16 18 20 21 21
20 24 27 26 25 25 25 26 28 27 27 28 26 25 24 22 23 22 20 20 19 20 20 19 15 13 16 19 21 26 23 18 13 12 13 14 18 20
26 27 26 25 25 26 26 27 27 28 27 28 27 26 27 26 25 24 22 21 22 22 20 22 17 16 15 16 22 23 24 22 17 18 16 10 10 9
Wind_Direction
284 288 292 293 296 303 306 304 317 319 338 348 351 348 340 341 337 325 338 4 321 286 246 192 181 173 172 187 198 210 214 233 223 238 276 269 248 248
282 279 284 286 291 299 303 306 307 313 322 333 342 336 331 327 326 313 293 282 306 304 321 21 164 183 200 211 219 223 228 230 230 228 235 265 277 277
279 273 276 282 286 294 300 304 302 307 312 317 320 320 319 318 320 325 326 310 324 335 334 337 333 340 360 346 292 255 251 243 237 237 237 235 233 243
277 266 263 277 282 287 293 297 299 302 305 309 305 313 313 314 312 317 326 333 311 324 324 322 322 327 332 333 333 326 308 290 268 255 247 249 243 236
247 255 258 260 276 283 289 292 294 298 306 307 306 307 302 303 311 318 321 319 317 323 328 330 331 331 328 324 325 324 319 307 290 276 264 259 256 253
196 196 208 234 262 278 286 288 292 296 301 308 306 299 300 295 297 295 298 312 310 324 332 332 331 326 322 322 323 322 322 317 312 305 294 286 273 262
200 198 203 203 218 235 261 282 287 293 297 301 300 298 297 297 296 299 306 304 311 321 328 333 331 324 327 332 334 332 330 327 321 315 309 304 296 266
222 234 257 254 246 224 234 281 285 288 290 291 292 290 288 296 295 296 303 310 317 333 331 330 331 329 332 333 333 334 334 332 330 326 323 247 279 268
259 265 255 264 269 275 260 263 275 274 281 283 286 286 287 293 295 304 309 314 319 322 328 327 336 337 339 337 337 334 335 331 330 326 320 320 315 286
262 254 268 276 266 260 263 277 281 282 281 281 282 286 289 294 301 305 308 313 317 322 328 323 332 337 342 339 341 340 339 336 333 328 321 320 325 328
273 272 269 272 274 272 276 277 281 283 285 287 287 285 285 288 294 299 303 308 316 318 328 326 331 337 343 340 342 343 339 340 333 336 329 321 319 325
270 272 270 273 274 268 270 277 280 283 287 289 290 288 289 292 294 299 302 310 312 316 322 328 331 337 340 346 344 334 335 348 337 342 336 330 324 325
270 272 273 271 271 272 272 276 278 283 285 286 289 290 291 294 297 300 302 305 310 313 318 322 322 330 338 333 335 333 337 338 342 347 343 338 332 330
267 270 271 276 274 274 274 269 274 283 288 288 288 289 291 294 297 300 302 304 308 309 314 316 315 319 321 325 323 331 333 335 345 345 344 341 337 334
264 269 276 277 278 279 270 274 276 285 290 286 287 292 295 300 303 305 306 307 306 308 308 310 313 313 318 318 315 322 325 333 343 348 347 349 349 345
263 271 276 277 276 274 267 272 275 283 290 293 297 302 306 306 306 307 305 306 304 304 306 306 312 314 314 317 312 310 319 326 341 345 349 353 359 358
262 269 272 264 263 266 266 273 284 287 289 294 295 301 305 307 307 312 312 310 307 307 310 312 315 312 311 313 310 311 319 326 341 346 346 346 351 5
251 257 259 260 261 267 270 278 284 284 288 293 296 300 305 310 312 316 318 315 313 311 311 314 318 313 309 310 315 314 320 327 339 349 351 344 347 357
238 250 255 258 264 270 277 280 284 288 291 293 297 299 303 307 311 309 310 311 312 313 316 322 328 319 312 309 311 326 321 327 337 345 351 348 337 336
234 203 263 266 273 278 282 284 287 290 292 293 295 296 296 299 304 303 303 306 309 314 318 317 312 311 310 306 305 317 335 328 335 336 341 345 343 338
269 263 265 270 276 282 285 286 288 290 290 291 291 291 293 292 292 294 296 297 301 305 307 305 305 304 309 313 310 311 323 332 330 334 335 334 333 335
277 276 276 279 281 285 288 289 289 291 290 289 290 290 289 288 287 287 288 291 290 296 299 303 307 305 304 306 308 305 312 326 337 334 334 334 335 334
282 281 282 282 284 288 289 289 288 289 292 292 292 292 291 289 287 284 282 284 287 292 293 295 300 301 301 303 304 307 309 314 327 329 333 334 326 318